www.pogodaiklimat.ru

Погода и климат >> Архив погоды >> Норвегия >> Аэропорт Mo i Rana


ПОГОДА в Аэропорту Mo i Rana

  • Прогноз погоды в Аэропорту Mo i Rana
  • Монитор погоды в Аэропорту Mo i Rana

АРХИВ ПОГОДЫ в Аэропорту Mo i Rana

Время (UTC), дата Ветер
(напр.,м/с)
 
Видим.   Явления Облачность Т
(С)
Тd
(С)
f
(%)
Тe
(С)
Тes
(С)
Комфортность P
(гПа)
Po
(гПа)
Тmin
(С)
Tmax
(С)
R
(мм)
R24
(мм)
S
(см)
10 12.08 В 3
{6}
н/о н/о +20.6 +12.8 61 +23 +23 комфорт 1000.8 992.7
11 12.08 СВ 2
{3}
н/о н/о +21.8 +13.3 58 +24 +24 комфорт 1000.4 992.3
12 12.08 В 4
{6}
н/о н/о +22.2 +13.6 58 +25 +25 комфорт 1000.2 992.2
13 12.08 В 4
{6}
н/о н/о +22.4 +12.8 55 +25 +25 комфорт 999.9 991.9
14 12.08 В 3
{7}
н/о н/о +22.2 +12.5 54 +25 +25 комфорт 999.7 991.7
15 12.08 В 6
{7}
н/о н/о +21.6 +12.7 57 +24 +24 комфорт 999.7 991.6
16 12.08 ЮВ 3
{8}
н/о н/о +20.1 +12.9 63 +22 +22 комфорт 1000.2 992.2
17 12.08 СВ 3
{7}
н/о н/о +20.1 +13.4 65 +22 +22 комфорт 1000.1 992.1
18 12.08 В 4
{8}
н/о н/о +20.0 +13.2 65 +22 +22 комфорт 1000.5 992.4 +18.7 +23.2
19 12.08 В 3
{6}
н/о н/о +19.3 +12.9 66 +21 +21 комфорт 1000.8 992.7
20 12.08 В 3
{5}
н/о н/о +18.8 +12.5 67 +20 +20 1001.0 992.9
21 12.08 В 2
{5}
н/о н/о +18.3 +12.5 69 +19 +19 1001.3 993.2
22 12.08 ЮВ 1
{5}
н/о н/о +17.7 +12.4 71 +19 +19 1001.5 993.3
23 12.08 ЮЗ 1
{2}
н/о н/о +16.1 +12.8 81 +17 +17 1001.6 993.4
00 13.08 В 1
{6}
н/о н/о +16.0 +12.5 80 +17 +17 1001.5 993.3
01 13.08 СВ 1
{2}
н/о н/о +15.6 +12.4 81 +16 +16 1001.5 993.3
02 13.08 СЗ 2
{2}
н/о н/о +15.2 +12.4 83 +15 +15 1001.5 993.2
03 13.08 З 1
{2}
н/о н/о +14.6 +12.3 86 +15 +15 1001.3 993.1
04 13.08 штиль 0
{1}
н/о н/о +14.9 +12.5 86 +15 +15 1001.2 993.0
05 13.08 штиль 0
{2}
н/о н/о +16.5 +12.9 79 +16 +16 1001.0 992.8
06 13.08 СЗ 1
{2}
н/о н/о +17.7 +12.2 70 +19 +19 1000.9 992.7 +14.5 +20.0
07 13.08 ЮЗ 1
{2}
н/о н/о +18.4 +13.0 71 +20 +20 1000.6 992.5
08 13.08 СЗ 2
{5}
н/о н/о +19.4 +12.6 65 +21 +21 комфорт 1000.5 992.4
09 13.08 В 5
{8}
н/о н/о +21.5 +12.0 55 +24 +24 комфорт 1000.0 991.9
10 13.08 В 5
{9}
н/о н/о +20.7 +11.7 56 +23 +23 комфорт 999.8 991.7
11 13.08 В 4
{8}
н/о н/о +21.2 +11.7 55 +23 +23 комфорт 999.5 991.5
12 13.08 В 3
{9}
н/о н/о +21.7 +12.0 54 +24 +24 комфорт 999.2 991.2
13 13.08 ЮЗ 4
{7}
н/о н/о +18.0 +13.8 76 +18 +18 999.6 991.5
14 13.08 ЮЗ 2
{3}
н/о н/о +18.2 +15.1 82 +19 +19 999.7 991.6
15 13.08 З 2
{3}
н/о н/о +19.2 +14.5 74 +21 +21 комфорт 999.3 991.2
16 13.08 С 2
{4}
н/о н/о +19.7 +14.5 72 +22 +22 комфорт 999.1 991.0
17 13.08 С 3
{4}
н/о н/о +19.1 +14.6 75 +21 +21 комфорт 999.1 991.0
18 13.08 СВ 1
{7}
н/о н/о +18.1 +14.5 79 +19 +19 999.4 991.3 +17.7 +22.6
19 13.08 С 1
{2}
н/о н/о +16.2 +14.6 90 +17 +17 999.5 991.3
20 13.08 В 2
{4}
н/о н/о +15.3 +14.2 93 +15 +15 1000.0 991.8
21 13.08 В 1
{3}
н/о н/о +14.9 +13.7 93 +15 +15 1000.3 992.1
22 13.08 ЮЗ 1
{3}
н/о н/о +14.5 +12.6 88 +15 +15 1000.6 992.4
23 13.08 З 2
{4}
н/о н/о +14.0 +11.9 87 +13 +13 1000.9 992.7
00 14.08 З 3
{6}
н/о н/о +13.5 +11.4 87 +12 +12 1001.1 992.8
01 14.08 СЗ 2
{6}
н/о н/о +13.2 +11.0 87 +12 +12 1001.4 993.1
02 14.08 СВ 1
{5}
н/о н/о +13.0 +10.7 86 +13 +13 1001.6 993.3
03 14.08 СВ 1
{3}
н/о н/о +12.4 +10.8 90 +12 +12 1001.7 993.4
04 14.08 Ю 1
{3}
н/о н/о +12.3 +10.6 89 +12 +12 1001.9 993.6
05 14.08 В 1
{4}
н/о н/о +12.3 +9.7 84 +12 +12 1002.2 993.9
06 14.08 СВ 2
{6}
н/о н/о +11.9 +9.9 88 +11 +11 1002.4 994.0 +11.8 +18.1
07 14.08 В 2
{3}
н/о н/о +11.8 +10.2 90 +11 +11 1002.9 994.6
08 14.08 В 2
{5}
н/о н/о +11.9 +9.4 85 +11 +11 1002.9 994.6
09 14.08 ЮВ 2
{3}
н/о н/о +12.7 +9.2 79 +12 +12 1003.2 994.9
10 14.08 Ю 2
{5}
н/о н/о +12.3 +9.9 85 +11 +11 1003.5 995.2
11 14.08 ЮЗ 4
{8}
н/о н/о +12.1 +9.9 86 +10 +10 1003.8 995.5
12 14.08 ЮЗ 3
{8}
н/о н/о +12.6 +9.5 81 +11 +11 1004.1 995.8
13 14.08 ЮЗ 4
{7}
н/о н/о +12.1 +9.7 85 +10 +10 1004.3 996.0
14 14.08 З 3
{8}
н/о н/о +12.3 +9.7 84 +11 +11 1004.6 996.3
15 14.08 СЗ 3
{7}
н/о н/о +12.3 +8.8 79 +11 +11 1004.9 996.6
16 14.08 Ю 3
{5}
н/о н/о +12.2 +9.2 82 +11 +11 1005.3 997.0
17 14.08 ЮЗ 3
{5}
н/о н/о +11.5 +9.3 86 +10 +10 1005.5 997.2
18 14.08 З 3
{8}
н/о н/о +11.2 +9.1 87 +9 +9 1005.6 997.3 +11.2 +12.8
19 14.08 З 2
{5}
н/о н/о +11.0 +9.3 89 +10 +10 1005.8 997.4
20 14.08 В 2
{5}
н/о н/о +11.0 +9.6 91 +10 +10 1006.0 997.6
21 14.08 З 3
{6}
н/о н/о +10.9 +9.1 89 +9 +9 1006.0 997.7
22 14.08 З 4
{7}
н/о н/о +10.6 +8.8 89 +8 +8 1006.1 997.7
23 14.08 СЗ 2
{5}
н/о н/о +10.4 +9.2 92 +9 +9 1006.4 998.0
00 15.08 З 1
{7}
н/о н/о +10.3 +9.3 94 +10 +10 1006.5 998.1
01 15.08 В 1
{2}
н/о н/о +10.4 +9.4 94 +10 +10 1006.5 998.1
02 15.08 СВ 1
{2}
н/о н/о +10.1 +9.4 95 +10 +10 1006.5 998.1
03 15.08 СВ 1
{2}
н/о н/о +9.9 +9.2 95 +9 +9 1006.5 998.1
04 15.08 штиль 0
{2}
н/о н/о +9.9 +9.3 96 +9 +9 1006.6 998.2
05 15.08 штиль 0
{1}
н/о н/о +10.3 +9.6 95 +9 +9 1006.7 998.3
06 15.08 ЮВ 1
{2}
н/о н/о +10.6 +9.7 94 +10 +10 1006.8 998.4 +9.9 +11.2
07 15.08 штиль 0
{2}
н/о н/о +11.1 +9.9 92 +10 +10 1006.8 998.5
08 15.08 ЮЗ 4
{5}
н/о н/о +11.7 +9.5 86 +9 +9 1006.8 998.5
09 15.08 З 3
{6}
н/о н/о +11.7 +9.6 87 +10 +10 1007.0 998.6
10 15.08 ЮЗ 3
{6}
н/о н/о +12.4 +9.9 85 +11 +11 1007.1 998.7
11 15.08 З 3
{7}
н/о н/о +12.9 +9.5 80 +12 +12 1007.2 998.9
12 15.08 ЮЗ 4
{7}
н/о н/о +14.0 +9.9 76 +13 +13 1007.3 999.0
13 15.08 ЮЗ 3
{6}
н/о н/о +13.3 +9.3 77 +12 +12 1007.5 999.2
14 15.08 З 3
{5}
н/о н/о +14.6 +8.4 66 +14 +14 1007.4 999.1
15 15.08 З 5
{8}
н/о н/о +13.3 +7.8 69 +11 +11 1007.6 999.2
16 15.08 СЗ 3
{7}
н/о н/о +13.2 +7.1 66 +12 +12 1007.8 999.5
17 15.08 ЮВ 2
{4}
н/о н/о +12.8 +8.2 74 +12 +12 1007.6 999.3
18 15.08 В 1
{8}
н/о н/о +12.6 +9.5 81 +13 +13 1007.6 999.3 +10.6 +15.5
19 15.08 С 1
{3}
н/о н/о +11.8 +9.3 85 +12 +12 1007.7 999.3
20 15.08 ЮВ 1
{4}
н/о н/о +11.4 +9.2 86 +11 +11 1007.8 999.4
21 15.08 ЮВ 1
{2}
н/о н/о +10.6 +9.3 92 +10 +10 1007.7 999.3
22 15.08 штиль 0
{2}
н/о н/о +9.6 +8.2 91 +9 +9 1007.6 999.2
23 15.08 З 1
{1}
н/о н/о +7.4 +6.5 94 +6 +6 1007.6 999.1
00 16.08 штиль 0
{4}
н/о н/о +6.5 +5.6 94 +5 +5 1007.7 999.1
01 16.08 ЮВ 1
{2}
н/о н/о +5.3 +4.8 97 +4 +4 1007.5 998.9
02 16.08 штиль 0
{1}
н/о н/о +5.2 +4.7 97 +4 +4 1007.5 998.9
03 16.08 В 1
{2}
н/о н/о +6.7 +6.3 97 +5 +5 1007.2 998.7
04 16.08 ЮЗ 1
{2}
н/о н/о +6.1 +5.7 97 +5 +5 1007.0 998.5
05 16.08 Ю 1
{2}
н/о н/о +7.4 +6.6 95 +6 +6 1006.9 998.4
06 16.08 СЗ 1
{2}
н/о н/о +10.0 +7.7 86 +10 +10 1006.2 997.8 +4.4 +12.6
07 16.08 С 2
{4}
н/о н/о +12.3 +8.0 75 +11 +11 1005.4 997.1
08 16.08 С 2
{5}
н/о н/о +15.6 +7.6 59 +16 +16 1004.7 996.5
09 16.08 В 5
{8}
н/о н/о +18.0 +7.1 49 +18 +18 1003.8 995.7
10 16.08 Ю 5
{9}
н/о н/о +19.5 +6.7 43 +20 +20 1004.0 995.8
11 16.08 ЮЗ 2
{9}
н/о н/о +17.7 +8.5 55 +18 +18 1004.1 995.9
12 16.08 СЗ 3
{9}
н/о н/о +16.9 +8.2 56 +17 +17 1004.4 996.2
13 16.08 З 3
{7}
н/о н/о +15.0 +9.1 68 +14 +14 1005.1 996.9
14 16.08 С 1
{5}
н/о н/о +16.2 +8.9 62 +17 +17 1005.2 996.9
15 16.08 З 5
{8}
н/о н/о +13.9 +10.1 78 +12 +12 1005.8 997.5
16 16.08 С 2
{8}
н/о н/о +13.6 +9.6 77 +13 +13 1006.2 997.9
17 16.08 СВ 1
{4}
н/о н/о +14.5 +9.1 70 +15 +15 1006.2 997.9
18 16.08 Ю 1
{8}
н/о н/о +14.7 +9.5 71 +15 +15 1006.1 997.8 +9.8 +19.6
19 16.08 ЮВ 1
{2}
н/о н/о +12.5 +9.0 79 +13 +13 1006.2 997.8
20 16.08 ЮВ 1
{2}
н/о н/о +9.4 +7.7 89 +9 +9 1006.4 997.9
21 16.08 Ю 1
{2}
н/о н/о +9.2 +8.4 95 +8 +8 1006.4 998.0
22 16.08 В 2
{2}
н/о н/о +7.8 +7.0 95 +6 +6 1006.4 997.9
23 16.08 В 1
{2}
н/о н/о +6.8 +6.3 97 +6 +6 1006.5 998.0
00 17.08 ЮВ 2
{2}
н/о н/о +6.3 +5.7 96 +4 +4 1006.4 997.9
01 17.08 ЮВ 1
{3}
н/о н/о +7.6 +7.0 96 +7 +7 1006.0 997.6
02 17.08 ЮВ 1
{2}
н/о н/о +7.5 +6.9 96 +6 +6 1005.8 997.3
03 17.08 ЮВ 1
{3}
н/о н/о +7.7 +7.0 95 +7 +7 1005.4 996.9
04 17.08 Ю 1
{2}
н/о н/о +8.1 +7.3 95 +7 +7 1004.9 996.4
05 17.08 штиль 0
{2}
н/о н/о +8.7 +7.7 93 +8 +8 1004.3 995.8
06 17.08 СЗ 1
{3}
н/о н/о +9.8 +8.4 91 +9 +9 1003.7 995.4 +5.9 +14.6
07 17.08 С 1
{2}
н/о н/о +11.6 +8.9 83 +11 +11 1003.2 994.9
08 17.08 С 2
{2}
н/о н/о +13.5 +9.8 78 +13 +13 1002.7 994.4
09 17.08 С 1
{3}
н/о н/о +15.6 +11.0 74 +16 +16 1002.1 993.9
10 17.08 В 4
{8}
н/о н/о +17.4 +11.3 67 +17 +17 1001.3 993.1
11 17.08 В 3
{7}
н/о н/о +18.4 +11.2 63 +19 +19 1001.0 992.9
12 17.08 ЮВ 6
{8}
н/о н/о +20.0 +10.6 55 +21 +21 комфорт 1000.2 992.1
13 17.08 В 5
{10}
н/о н/о +19.3 +11.0 59 +20 +20 1000.0 991.9
14 17.08 В 3
{10}
н/о н/о +19.3 +10.8 58 +21 +21 комфорт 999.5 991.4
15 17.08 В 3
{7}
н/о н/о +19.5 +10.4 56 +21 +21 комфорт 999.0 990.9
16 17.08 ЮВ 4
{7}
н/о н/о +19.0 +10.8 59 +20 +20 998.7 990.7
17 17.08 В 3
{7}
н/о н/о +19.1 +9.9 55 +20 +20 998.4 990.3
18 17.08 В 5
{10}
н/о н/о +18.4 +9.0 54 +18 +18 998.4 990.3 +9.8 +20.0
19 17.08 В 6
{8}
н/о н/о +17.7 +9.6 59 +17 +17 998.4 990.3
20 17.08 В 4
{10}
н/о н/о +16.2 +10.2 68 +16 +16 998.5 990.3
21 17.08 В 5
{9}
н/о н/о +15.9 +10.3 69 +15 +15 998.2 990.0
22 17.08 В 4
{10}
н/о н/о +16.4 +9.7 65 +16 +16 998.2 990.1
23 17.08 В 5
{10}
н/о н/о +16.7 +9.7 63 +16 +16 998.0 989.9
00 18.08 В 6
{10}
н/о н/о +16.4 +9.7 65 +15 +15 997.9 989.7
01 18.08 В 4
{8}
н/о н/о +16.4 +10.0 66 +16 +16 998.0 989.8
02 18.08 В 4
{8}
н/о н/о +16.6 +10.1 65 +16 +16 997.8 989.6
03 18.08 В 3
{6}
н/о н/о +16.3 +10.5 69 +16 +16 997.8 989.6
04 18.08 В 2
{6}
н/о н/о +15.5 +11.1 75 +15 +15 997.9 989.7
05 18.08 В 3
{6}
н/о н/о +16.9 +11.0 68 +17 +17 997.7 989.5
06 18.08 В 4
{8}
н/о н/о +17.3 +11.0 66 +17 +17 997.6 989.5 +15.5 +18.6
07 18.08 В 4
{6}
н/о н/о +17.2 +11.7 70 +17 +17 997.7 989.6
08 18.08 ЮВ 4
{6}
н/о н/о +18.5 +11.8 65 +19 +19 997.4 989.3
09 18.08 ЮВ 6
{10}
н/о н/о +20.1 +11.0 56 +21 +21 комфорт 997.3 989.3
10 18.08 ЮВ 6
{9}
н/о н/о +20.6 +10.7 53 +22 +22 комфорт 997.5 989.5
11 18.08 ЮЗ 7
{12}
н/о н/о +16.8 +12.0 73 +16 +16 998.7 990.6
12 18.08 С 2
{12}
н/о н/о +14.8 +11.3 80 +14 +14 1000.2 992.0
13 18.08 ЮЗ 4
{6}
н/о н/о +13.9 +11.7 87 +12 +12 1000.9 992.6
14 18.08 В 2
{5}
н/о н/о +14.7 +12.7 88 +14 +14 1001.2 993.0
15 18.08 ЮВ 1
{2}
н/о н/о +16.3 +11.9 75 +17 +17 1001.1 992.9
16 18.08 В 2
{3}
н/о н/о +15.9 +12.2 79 +16 +16 1001.2 993.0
17 18.08 В 2
{3}
н/о н/о +16.5 +12.1 75 +17 +17 1001.3 993.1
18 18.08 Ю 1
{6}
н/о н/о +15.2 +11.7 80 +16 +16 1000.8 992.6 +13.9 +21.4
19 18.08 З 1
{2}
н/о н/о +12.6 +10.8 89 +13 +13 1000.8 992.6
20 18.08 СВ 1
{2}
н/о н/о +12.6 +11.4 92 +13 +13 1001.0 992.7
21 18.08 С 2
{2}
н/о н/о +12.6 +11.3 92 +12 +12 1000.7 992.5
22 18.08 СВ 1
{2}
н/о н/о +11.8 +10.6 92 +12 +12 1000.6 992.3
23 18.08 штиль 0
{1}
н/о н/о +10.6 +9.8 95 +10 +10 1000.3 992.0
00 19.08 ЮВ 1
{2}
н/о н/о +9.8 +9.2 96 +9 +9 1000.2 991.8
01 19.08 СЗ 1
{2}
н/о н/о +8.9 +8.2 95 +8 +8 999.9 991.5
02 19.08 З 1
{2}
н/о н/о +8.4 +8.2 99 +7 +7 999.6 991.2
03 19.08 С 1
{3}
н/о н/о +8.7 +8.1 96 +8 +8 999.1 990.7
05 19.08 З 1
{3}
н/о н/о +11.8 +9.9 88 +12 +12 998.3 990.0
06 19.08 С 2
{4}
н/о н/о +11.7 +9.3 85 +11 +11 998.1 989.8 +8.2 +15.2
07 19.08 С 2
{3}
н/о н/о +14.2 +10.4 78 +14 +14 997.6 989.3
08 19.08 С 3
{3}
н/о н/о +14.9 +10.9 77 +14 +14 997.0 988.8
09 19.08 СЗ 3
{4}
н/о н/о +18.5 +11.2 62 +19 +19 996.2 988.1
10 19.08 С 2
{5}
н/о н/о +19.4 +11.1 59 +21 +21 комфорт 995.9 987.8
11 19.08 С 3
{5}
н/о н/о +18.0 +11.4 65 +18 +18 995.8 987.7

 

Местоположение метеостанции Аэропорт Mo i Rana (Норвегия): широта 66.36 долгота 14.30 высота над уровнем моря 70 м.

В архиве по умолчанию представлена погода в Аэропорту Mo i Rana за последнюю неделю. Архивные данные за месяц целиком и за предыдущие месяцы, начиная с января 2011 года, Вы можете получить, выбрав интересующий диапазон дат из раскрывающегося списка и нажав кнопку "Ввод!".


*Определитесь, кто Вы:
робот инопланетянин человек

Внимание! Время в таблицах - всемирное. Для получения местного времени необходимо прибавить поправку, которая равна 1 ч.

Смотрите также архив погоды в соседних городах и на ближайших метеорологических станциях:

Погода в Сторфоршее (Норвегия) (11 км)
Погода в Скамдале (Норвегия) (22 км)
Погода в Хяртасене (Норвегия) (33 км)
Погода в Сельджеля (Норвегия) (41 км)
Погода в Варнтреске (Норвегия) (66 км)
Погода в Рейпе (Норвегия) (67 км)
Погода в Хемаван аэропорту (Швеция) (72 км)
Погода в Хемаван Skorvfjallet (Швеция) (73 км)
Погода в Солвер III (Норвегия) (75 км)
Погода в Салтдале (Норвегия) (79 км)

Пояснения к столбцам:

Ветер - указаны скорость ветра в м/с - средняя за 10 мин, порывы в срок и между сроками (в фигурных скобках) и направление, откуда дует ветер: С - северный, СВ - северо-восточный, В - восточный, ЮВ - юго-восточный, Ю - южный, ЮЗ - юго-западный, З - западный, СЗ - северо-западный.
Видимость - горизонтальная дальность видимости в метрах или километрах. При видимости от 1 до 10 км при отсутствии осадков обычно наблюдается дымка, при ухудшении видимости до 1 км и менее - туман. В сухую погоду видимость может ухудшаться дымом, пылью или мглою.
Явления - указаны атмосферные явления, наблюдавшиеся в срок или в последний час перед сроком; фигурными скобками обозначены явления, наблюдавшиеся между сроками (за 1-3 часа до срока); квадратными скобками обозначены град или гололедные отложения с указанием их диаметра в мм.
Облачность - указаны через наклонную черту общая и нижняя облачность в баллах и высота нижней границы облаков в метрах; квадратными скобками обозначены формы облаков: Ci - перистые, Cs - перисто-слоистые, Cc - перисто-кучевые, Ac - высококучевые, As - высокослоистые, Sc - слоисто-кучевые, Ns - слоисто-дождевые, Cu - кучевые, Cb - кучево-дождевые. Подробнее классификацию облаков см. в Атласе облаков (PDF).
T - Температура воздуха - температура, измеренная на высоте 2 м над землей.
Td - Температура точки росы - температура, при понижении до которой содержащийся в воздухе водяной пар достигнет насыщения.
f - Относительная влажность воздуха - влажноcть воздуха, измеренная на высоте 2 м над землей.
Te - Эффективная температура - температура, которую ощущает одетый по сезону человек в тени. Характеристика душности погоды. При расчете учитывается влияние влажности воздуха и скорости ветра на теплоощущения человека.
Tes - Эффективная температура на солнце - температура, которую ощущает человек, с поправкой на солнечный нагрев. Характеристика знойности погоды. Зависит от высоты солнца над горизонтом, облачности и скорости ветра. Ночью, в пасмурную погоду, а также при ветре 12 м/с и более поправка равна нулю.
P - Атмосферное давление - приведенное к уровню моря атмосферное давление.
Po - Атмосферное давление - измеренное на уровне метеостанции атмосферное давление.
Tmin - Минимальная температура - минимум температуры воздуха на высоте 2 м над землей.
Tmax - Максимальная температура - максимум температуры воздуха на высоте 2 м над землей.
R - Количество осадков - Количество выпавших осадков за период времени, мм. При наведении курсора мыши на число - период времени, за который выпало указанное количество осадков.
R24 - Количество осадков - Количество выпавших осадков за 24 часа, мм.
S - Снежный покров - Высота снежного покрова, см. При наведении курсора мыши на число - состояние снежного покрова и степень покрытия местности в баллах.